Weather in Perevoz

Russia / Nizhny Novgorod Oblast'     55°35′48″N   44°32′41″E
temp.,
°C
wind,
m/s
gust,
m/s
humid.,
%
clouds,
%
prec.,
mm/h
press.,
hPa
HPBL,
m
6 may, thu
thu600:00+6sw2389100 0.1 101188
03:00+8wsw51089100 0.3 1011325
06:00+8sw388715 0.5 1012262
09:00+14sw586773 0.5 1013604
12:00+17ssw7955100 0.0 10121521
15:00+17ssw81061100 0.1 10121528
18:00+14s71266100 0.0 1012863
21:00+12ssw61470100 0.0 1012576
7 may, fri
fri700:00+11s6157291 0.0 1011518
03:00+10s61475100 0.0 1011442
06:00+10ssw51079100 0.0 1011482
09:00+9w6989100 0.3 1013663
12:00+8ssw3488100 1.9 1015317
15:00+14w46505 2.5 10141884
18:00+13sw35585 0.0 1015144
21:00+8sw22615 0.0 101713
8 may, sat
sat800:00+6ssw22735 0.0 101812
03:00+5s227594 0.0 101811
06:00+7se3675100 0.0 1017153
09:00+12sse686029 0.0 1016887
12:00+15sse785491 0.0 10141413
15:00+16sse61058100 0.0 10121122
18:00+15s71374100 0.2 1010766
21:00+15s71574100 0.3 1008685
9 may, sun
sun900:00+13s81588100 0.9 1008835
03:00+12sw71092100 1.9 1008804
06:00+9wsw3892100 1.1 1011541
09:00+7wnw4785100 1.2 1014559
12:00+10nw3467100 0.0 1016973
15:00+11nw2360100 0.1 10181183
18:00+9ne0179100 0.4 1019100
21:00+8nw1281100 0.5 102275
10 may, mon
mon1000:00+7n3784100 0.3 1023281
03:00+6n368798 0.3 1025174
06:00+7nne378660 0.0 1026289
09:00+11nne566710 0.0 10271027
12:00+14ne44545 0.0 10281465
15:00+15ne33505 0.0 10271485
18:00+14ne23625 0.0 1028155
21:00+9s118157 0.0 103012